Time,TemperatureF,DewpointF,PressureIn,WindDirection,WindDirectionDegrees,WindSpeedMPH,WindSpeedGustMPH,Humidity,HourlyPrecipIn,Conditions,Clouds,dailyrainin,SoftwareType,DateUTC
2013-03-19 00:14:00,31.1,30.0,30.02,East,98,3.0,8.0,96,0.00,,,0.00,weatherlink.com 1.10,2013-03-19 04:14:00,
2013-03-19 00:29:00,31.4,30.0,30.01,ENE,71,3.0,6.0,96,0.00,,,0.00,weatherlink.com 1.10,2013-03-19 04:29:00,
2013-03-19 00:44:00,31.7,31.0,30.00,ESE,102,4.0,12.0,96,0.00,,,0.00,weatherlink.com 1.10,2013-03-19 04:44:00,
2013-03-19 00:59:00,31.8,31.0,29.98,ESE,105,2.0,13.0,96,0.00,,,0.00,weatherlink.com 1.10,2013-03-19 04:59:00,
2013-03-19 01:14:00,31.9,31.0,29.95,ESE,103,3.0,10.0,96,0.00,,,0.00,weatherlink.com 1.10,2013-03-19 05:14:00,
2013-03-19 01:29:00,32.0,31.0,29.94,East,82,5.0,10.0,96,0.00,,,0.00,weatherlink.com 1.10,2013-03-19 05:29:00,
2013-03-19 01:44:00,32.2,31.0,29.93,East,98,5.0,11.0,96,0.00,,,0.00,weatherlink.com 1.10,2013-03-19 05:44:00,
2013-03-19 01:59:00,32.4,31.0,29.94,East,86,5.0,11.0,96,0.00,,,0.00,weatherlink.com 1.10,2013-03-19 05:59:00,
2013-03-19 02:14:00,32.5,32.0,29.92,East,84,6.0,10.0,96,0.00,,,0.00,weatherlink.com 1.10,2013-03-19 06:14:00,
2013-03-19 02:29:00,32.5,32.0,29.92,ENE,69,8.0,9.0,96,0.00,,,0.00,weatherlink.com 1.10,2013-03-19 06:29:00,
2013-03-19 02:44:00,32.6,32.0,29.92,East,85,5.0,6.0,96,0.01,,,0.01,weatherlink.com 1.10,2013-03-19 06:44:00,
2013-03-19 02:59:00,32.6,32.0,29.91,East,84,6.0,8.0,96,0.03,,,0.03,weatherlink.com 1.10,2013-03-19 06:59:00,
2013-03-19 03:14:00,32.6,32.0,29.89,NE,53,4.0,8.0,96,0.03,,,0.03,weatherlink.com 1.10,2013-03-19 07:14:00,
2013-03-19 03:29:00,32.6,32.0,29.89,ENE,74,3.0,7.0,96,0.05,,,0.05,weatherlink.com 1.10,2013-03-19 07:29:00,
2013-03-19 03:44:00,32.6,32.0,29.88,ENE,65,3.0,8.0,96,0.06,,,0.07,weatherlink.com 1.10,2013-03-19 07:44:00,
2013-03-19 03:59:00,32.7,32.0,29.87,ENE,76,3.0,6.0,96,0.04,,,0.07,weatherlink.com 1.10,2013-03-19 07:59:00,
2013-03-19 04:14:00,32.8,32.0,29.86,ENE,76,3.0,5.0,96,0.04,,,0.07,weatherlink.com 1.10,2013-03-19 08:14:00,
2013-03-19 04:29:00,32.8,32.0,29.84,ENE,59,5.0,7.0,96,0.02,,,0.07,weatherlink.com 1.10,2013-03-19 08:29:00,
2013-03-19 04:44:00,32.9,32.0,29.84,East,89,3.0,7.0,96,0.00,,,0.07,weatherlink.com 1.10,2013-03-19 08:44:00,
2013-03-19 04:59:00,33.0,32.0,29.83,East,85,6.0,6.0,96,0.00,,,0.07,weatherlink.com 1.10,2013-03-19 08:59:00,
2013-03-19 05:14:00,33.1,32.0,29.83,ENE,76,4.0,7.0,96,0.00,,,0.07,weatherlink.com 1.10,2013-03-19 09:14:00,
2013-03-19 05:29:00,33.2,32.0,29.82,ENE,62,4.0,6.0,96,0.00,,,0.07,weatherlink.com 1.10,2013-03-19 09:29:00,
2013-03-19 05:45:00,33.2,32.0,29.82,East,79,2.0,5.0,96,0.00,,,0.07,weatherlink.com 1.10,2013-03-19 09:45:00,
2013-03-19 06:00:00,33.2,32.0,29.81,East,83,2.0,8.0,96,0.00,,,0.07,weatherlink.com 1.10,2013-03-19 10:00:00,
2013-03-19 06:30:00,33.3,32.0,29.78,East,79,3.0,6.0,96,0.00,,,0.07,weatherlink.com 1.10,2013-03-19 10:30:00,
2013-03-19 06:45:00,33.4,32.0,29.79,East,81,3.0,6.0,96,0.01,,,0.08,weatherlink.com 1.10,2013-03-19 10:45:00,
2013-03-19 07:00:00,33.5,33.0,29.79,ENE,65,2.0,4.0,96,0.01,,,0.08,weatherlink.com 1.10,2013-03-19 11:00:00,
2013-03-19 07:15:00,33.6,33.0,29.80,NE,43,1.0,3.0,96,0.01,,,0.08,weatherlink.com 1.10,2013-03-19 11:15:00,
2013-03-19 07:30:00,33.7,33.0,29.80,NE,37,2.0,7.0,96,0.01,,,0.08,weatherlink.com 1.10,2013-03-19 11:30:00,
2013-03-19 07:45:00,33.6,33.0,29.78,ENE,59,3.0,5.0,96,0.01,,,0.09,weatherlink.com 1.10,2013-03-19 11:45:00,
2013-03-19 08:00:00,33.6,33.0,29.77,ENE,61,2.0,5.0,96,0.01,,,0.09,weatherlink.com 1.10,2013-03-19 12:00:00,
2013-03-19 08:15:00,33.6,33.0,29.76,East,80,3.0,9.0,96,0.01,,,0.09,weatherlink.com 1.10,2013-03-19 12:15:00,
2013-03-19 08:30:00,33.7,33.0,29.76,NE,50,2.0,9.0,96,0.02,,,0.10,weatherlink.com 1.10,2013-03-19 12:30:00,
2013-03-19 08:45:00,33.7,33.0,29.77,NNE,25,6.0,7.0,97,0.01,,,0.10,weatherlink.com 1.10,2013-03-19 12:45:00,
2013-03-19 09:00:00,33.6,33.0,29.77,NE,40,3.0,6.0,97,0.01,,,0.10,weatherlink.com 1.10,2013-03-19 13:00:00,
2013-03-19 09:15:00,33.5,33.0,29.75,NE,54,0.0,9.0,97,0.02,,,0.11,weatherlink.com 1.10,2013-03-19 13:15:00,
2013-03-19 09:30:00,33.4,33.0,29.77,NNE,22,0.0,5.0,97,0.01,,,0.11,weatherlink.com 1.10,2013-03-19 13:30:00,
2013-03-19 09:45:00,33.3,33.0,29.75,NE,43,2.0,5.0,97,0.02,,,0.12,weatherlink.com 1.10,2013-03-19 13:45:00,
2013-03-19 10:00:00,33.2,33.0,29.75,NNE,23,2.0,7.0,97,0.02,,,0.12,weatherlink.com 1.10,2013-03-19 14:00:00,
2013-03-19 10:15:00,33.0,32.0,29.74,NNE,19,5.0,7.0,97,0.01,,,0.12,weatherlink.com 1.10,2013-03-19 14:15:00,
2013-03-19 10:30:00,33.0,32.0,29.75,NNE,32,4.0,6.0,97,0.02,,,0.13,weatherlink.com 1.10,2013-03-19 14:30:00,
2013-03-19 10:45:00,33.1,32.0,29.74,NNE,15,3.0,5.0,97,0.02,,,0.14,weatherlink.com 1.10,2013-03-19 14:45:00,
2013-03-19 11:00:00,33.2,33.0,29.76,NNW,334,1.0,6.0,97,0.03,,,0.15,weatherlink.com 1.10,2013-03-19 15:00:00,
2013-03-19 11:15:00,33.3,33.0,29.77,NNW,333,0.0,6.0,97,0.05,,,0.17,weatherlink.com 1.10,2013-03-19 15:15:00,
2013-03-19 11:32:00,33.5,33.0,29.77,North,9,1.0,5.0,97,0.07,,,0.20,weatherlink.com 1.10,2013-03-19 15:32:00,
2013-03-19 11:45:00,33.6,33.0,29.76,NNE,13,1.0,4.0,97,0.09,,,0.23,weatherlink.com 1.10,2013-03-19 15:45:00,
2013-03-19 12:00:00,33.9,33.0,29.74,ENE,59,8.0,8.0,97,0.10,,,0.25,weatherlink.com 1.10,2013-03-19 16:00:00,
2013-03-19 12:15:00,34.0,33.0,29.77,WNW,292,0.0,5.0,97,0.11,,,0.28,weatherlink.com 1.10,2013-03-19 16:15:00,
2013-03-19 12:30:00,34.0,33.0,29.73,NE,52,4.0,7.0,96,0.10,,,0.30,weatherlink.com 1.10,2013-03-19 16:30:00,
2013-03-19 12:45:00,34.6,34.0,29.74,NE,40,1.0,3.0,97,0.09,,,0.32,weatherlink.com 1.10,2013-03-19 16:45:00,
2013-03-19 13:00:00,35.1,34.0,29.73,North,355,0.0,5.0,97,0.09,,,0.34,weatherlink.com 1.10,2013-03-19 17:00:00,
2013-03-19 13:15:00,35.6,35.0,29.73,NE,44,0.0,6.0,96,0.08,,,0.36,weatherlink.com 1.10,2013-03-19 17:15:00,
2013-03-19 13:30:00,35.9,35.0,29.73,NNW,344,3.0,7.0,95,0.08,,,0.38,weatherlink.com 1.10,2013-03-19 17:30:00,
2013-03-19 13:45:00,36.5,35.0,29.71,North,9,4.0,6.0,94,0.08,,,0.40,weatherlink.com 1.10,2013-03-19 17:45:00,
2013-03-19 14:00:00,36.6,35.0,29.70,NNW,338,2.0,6.0,92,0.08,,,0.42,weatherlink.com 1.10,2013-03-19 18:00:00,
2013-03-19 14:15:00,36.8,35.0,29.69,NNE,25,3.0,7.0,91,0.08,,,0.44,weatherlink.com 1.10,2013-03-19 18:15:00,
2013-03-19 14:30:00,37.2,35.0,29.70,NNW,327,0.0,4.0,90,0.08,,,0.46,weatherlink.com 1.10,2013-03-19 18:30:00,
2013-03-19 14:45:00,37.4,35.0,29.69,NW,324,2.0,7.0,89,0.08,,,0.48,weatherlink.com 1.10,2013-03-19 18:45:00,
2013-03-19 15:00:00,37.0,35.0,29.70,NW,305,0.0,9.0,91,0.08,,,0.50,weatherlink.com 1.10,2013-03-19 19:00:00,
2013-03-19 15:15:00,36.5,34.0,29.71,NW,304,2.0,9.0,92,0.07,,,0.51,weatherlink.com 1.10,2013-03-19 19:15:00,
2013-03-19 15:30:00,36.2,34.0,29.71,NW,320,0.0,9.0,92,0.07,,,0.53,weatherlink.com 1.10,2013-03-19 19:30:00,
2013-03-19 15:45:00,36.7,34.0,29.70,NNW,343,3.0,6.0,91,0.07,,,0.55,weatherlink.com 1.10,2013-03-19 19:45:00,
2013-03-19 15:59:00,37.7,35.0,29.70,WNW,295,3.0,6.0,90,0.06,,,0.56,weatherlink.com 1.10,2013-03-19 19:59:00,
2013-03-19 16:14:00,38.9,35.0,29.69,North,355,3.0,5.0,86,0.07,,,0.58,weatherlink.com 1.10,2013-03-19 20:14:00,
2013-03-19 16:29:00,39.1,35.0,29.69,WNW,285,0.0,4.0,86,0.08,,,0.61,weatherlink.com 1.10,2013-03-19 20:29:00,
2013-03-19 16:45:00,40.0,35.0,29.70,WSW,252,2.0,6.0,83,0.07,,,0.62,weatherlink.com 1.10,2013-03-19 20:45:00,
2013-03-19 17:00:00,40.8,35.0,29.69,NNW,330,2.0,9.0,81,0.07,,,0.63,weatherlink.com 1.10,2013-03-19 21:00:00,
2013-03-19 17:15:00,41.3,36.0,29.69,WNW,298,1.0,4.0,80,0.06,,,0.64,weatherlink.com 1.10,2013-03-19 21:15:00,
2013-03-19 17:30:00,41.3,35.0,29.69,NW,313,2.0,9.0,78,0.05,,,0.66,weatherlink.com 1.10,2013-03-19 21:30:00,
2013-03-19 17:45:00,41.6,35.0,29.70,NW,309,0.0,5.0,78,0.05,,,0.67,weatherlink.com 1.10,2013-03-19 21:45:00,
2013-03-19 18:00:00,41.1,35.0,29.70,NW,317,0.0,1.0,79,0.06,,,0.69,weatherlink.com 1.10,2013-03-19 22:00:00,
2013-03-19 18:15:00,41.1,35.0,29.69,NW,317,0.0,1.0,78,0.05,,,0.69,weatherlink.com 1.10,2013-03-19 22:15:00,
2013-03-19 18:30:00,40.5,35.0,29.70,West,274,0.0,4.0,80,0.04,,,0.70,weatherlink.com 1.10,2013-03-19 22:30:00,
2013-03-19 18:45:00,40.0,35.0,29.70,West,274,0.0,0.0,82,0.03,,,0.70,weatherlink.com 1.10,2013-03-19 22:45:00,
2013-03-19 19:00:00,39.3,35.0,29.70,West,274,0.0,0.0,83,0.01,,,0.70,weatherlink.com 1.10,2013-03-19 23:00:00,
2013-03-19 19:15:00,38.6,34.0,29.71,West,274,0.0,0.0,84,0.01,,,0.71,weatherlink.com 1.10,2013-03-19 23:15:00,
2013-03-19 19:30:00,38.3,34.0,29.71,West,274,0.0,0.0,84,0.01,,,0.71,weatherlink.com 1.10,2013-03-19 23:30:00,
2013-03-19 19:45:00,37.8,34.0,29.72,West,274,0.0,0.0,86,0.01,,,0.71,weatherlink.com 1.10,2013-03-19 23:45:00,
2013-03-19 20:15:00,38.3,35.0,29.72,NNW,337,0.0,9.0,86,0.00,,,0.71,weatherlink.com 1.10,2013-03-20 00:15:00,
2013-03-19 20:30:00,38.7,35.0,29.73,NW,316,0.0,3.0,85,0.00,,,0.71,weatherlink.com 1.10,2013-03-20 00:30:00,
2013-03-19 20:45:00,38.2,35.0,29.75,NNW,333,0.0,5.0,87,0.00,,,0.71,weatherlink.com 1.10,2013-03-20 00:45:00,
2013-03-19 21:00:00,37.8,34.0,29.75,WNW,291,0.0,8.0,87,0.01,,,0.72,weatherlink.com 1.10,2013-03-20 01:00:00,
2013-03-19 21:15:00,37.4,34.0,29.75,NNW,340,2.0,10.0,86,0.01,,,0.72,weatherlink.com 1.10,2013-03-20 01:15:00,
2013-03-19 21:30:00,37.2,33.0,29.76,NNW,329,3.0,13.0,84,0.02,,,0.73,weatherlink.com 1.10,2013-03-20 01:30:00,
2013-03-19 21:45:00,36.8,33.0,29.76,NW,323,1.0,7.0,85,0.02,,,0.73,weatherlink.com 1.10,2013-03-20 01:45:00,
2013-03-19 22:00:00,36.6,32.0,29.76,North,360,1.0,13.0,84,0.01,,,0.73,weatherlink.com 1.10,2013-03-20 02:00:00,
2013-03-19 22:15:00,36.3,32.0,29.77,WNW,302,3.0,5.0,84,0.01,,,0.73,weatherlink.com 1.10,2013-03-20 02:15:00,
2013-03-19 22:30:00,36.2,32.0,29.76,NW,311,2.0,10.0,84,0.00,,,0.73,weatherlink.com 1.10,2013-03-20 02:30:00,
2013-03-19 22:45:00,35.8,31.0,29.77,NNW,340,8.0,9.0,84,0.00,,,0.73,weatherlink.com 1.10,2013-03-20 02:45:00,
2013-03-19 23:00:00,35.3,30.0,29.77,North,5,9.0,14.0,81,0.00,,,0.73,weatherlink.com 1.10,2013-03-20 03:00:00,
2013-03-19 23:15:00,34.9,29.0,29.77,North,355,9.0,10.0,78,0.00,,,0.73,weatherlink.com 1.10,2013-03-20 03:15:00,
2013-03-19 23:30:00,34.8,27.0,29.78,NNW,331,4.0,8.0,74,0.00,,,0.73,weatherlink.com 1.10,2013-03-20 03:30:00,
2013-03-19 23:45:00,34.5,27.0,29.79,North,350,5.0,8.0,74,0.00,,,0.73,weatherlink.com 1.10,2013-03-20 03:45:00,